MPEC 2006-L02 : 2006 KL103

The following Minor Planet Electronic Circular may be linked-to from your own Web pages, but must not otherwise be redistributed electronically.


Read MPEC 2006-L01 Read MPEC 2006-L03


M.P.E.C. 2006-L02                                Issued 2006 June 1, 16:17 UT

     The Minor Planet Electronic Circulars contain information on unusual
         minor planets and routine data on comets.  They are published
   on behalf of Commission 20 of the International Astronomical Union by the
          Minor Planet Center, Smithsonian Astrophysical Observatory,
                          Cambridge, MA 02138, U.S.A.

                  Supported in part by the Brinson Foundation
                  Supported in part by the TABASGO Foundation
             Prepared using the Tamkin Foundation Computer Network

                              MPC@CFA.HARVARD.EDU
          URL http://cfa-www.harvard.edu/iau/mpc.html  ISSN 1523-6714

                                  2006 KL103

Observations:
     K06KA3L* C2006 05 31.21482 13 44 02.11 -13 49 43.3          20.0 V EL002G96
     K06KA3L  C2006 05 31.22229 13 44 07.58 -13 50 21.9          19.9 V EL002G96
     K06KA3L  C2006 05 31.22978 13 44 13.02 -13 51 00.7          19.9 V EL002G96
     K06KA3L  C2006 05 31.23723 13 44 18.49 -13 51 38.9          20.3 V EL002G96
     K06KA3L  C2006 05 31.27255 13 44 44.48 -13 54 40.0          20.0 V EL002G96
     K06KA3L  C2006 05 31.27629 13 44 47.25 -13 54 59.1          19.6 V EL002G96
     K06KA3L  C2006 05 31.27992 13 44 49.92 -13 55 17.2          19.8 V EL002G96
     K06KA3L  C2006 05 31.28366 13 44 52.80 -13 55 36.7          21.0 V EL002G96
     K06KA3L  C2006 06 01.15828 13 57 02.77 -15 11 23.4          19.8 V EL002G96
     K06KA3L  C2006 06 01.15958 13 57 03.70 -15 11 30.0          20.1 V EL002G96
     K06KA3L  C2006 06 01.16089 13 57 04.64 -15 11 36.3          20.4 V EL002G96
     K06KA3L  C2006 06 01.16219 13 57 05.68 -15 11 43.8          20.1 V EL002G96
     K06KA3L  C2006 06 01.19435 13 57 29.84 -15 14 29.9          20.1 V EL002G96
     K06KA3L  C2006 06 01.19835 13 57 32.83 -15 14 50.2          19.9 V EL002G96
     K06KA3L  C2006 06 01.20233 13 57 35.82 -15 15 10.5          19.8 V EL002G96
     K06KA3L  C2006 06 01.20633 13 57 38.59 -15 15 30.9          20.0 V EL002G96
     K06KA3L 5C2006 06 01.23611 13 58 02.83 -15 18 08.3          19.8 R EL002673
     K06KA3L 5C2006 06 01.24329 13 58 08.18 -15 18 44.7                 EL002673
     K06KA3L 5C2006 06 01.24711 13 58 11.19 -15 19 04.7                 EL002673
     K06KA3L 5C2006 06 01.25440 13 58 16.62 -15 19 41.1                 EL002673

Observer details:
673 Table Mountain Observatory, Wrightwood.  Observer J. Young.  0.61-m f/16
    Cassegrain + CCD.
G96 Mt. Lemmon Survey.  Observer A. D. Grauer.  Measurers E. C. Beshore,
    E. J. Christensen, G. J. Garradd, A. R. Gibbs, A. D. Grauer, R. E. Hill,
    R. A. Kowalski, S. M. Larson, R. H. McNaught.  1.5-m reflector + CCD.

Orbital elements:
2006 KL103                                               Earth MOID = 0.0253 AU
Epoch 2006 Mar. 6.0 TT = JDT 2453800.5                  MPC
M 319.14617              (2000.0)            P               Q
n   0.56668324     Peri.  182.42312     -0.59805805     +0.80143877
a   1.4462470      Node    50.84598     -0.73521570     -0.54626638
e   0.2836084      Incl.    0.35030     -0.31903675     -0.24349322
P   1.74           H   25.5           G   0.15           U   7
Residuals in seconds of arc
060531 G96  0.1+  0.2-    060531 G96  0.8+  0.2-    060601 G96  0.1+  0.1+
060531 G96  0.3+  0.0     060601 G96  0.6+  0.3-    060601 G96 (3.3-  0.2+)
060531 G96  0.2-  0.1-    060601 G96  0.1-  0.2-    060601 673  0.1+  0.3+
060531 G96  0.1+  0.2+    060601 G96  0.8-  0.4+    060601 673  0.9-  0.3+
060531 G96  0.2-  0.0     060601 G96  0.1+  0.4-    060601 673  0.9+  0.3-
060531 G96  0.3-  0.0     060601 G96  0.2+  0.2-    060601 673  0.2-  0.2+
060531 G96  0.6-  0.3+    060601 G96  0.0   0.0

Ephemeris:
2006 KL103               a,e,i = 1.45, 0.28, 0                   q = 1.0361
Date    TT    R. A. (2000) Decl.     Delta      r     Elong.  Phase     V
2006 05 25    12 30.71   -05 03.2    0.0432   1.038   125.4    52.6    20.7
2006 05 30    13 28.00   -12 00.4    0.0394   1.043   136.3    42.2    20.2
2006 06 04    14 37.40   -18 57.8    0.0392   1.048   149.5    29.4    19.9
2006 06 09    15 47.19   -23 51.8    0.0432   1.056   161.5    17.7    19.7
2006 06 14    16 45.16   -26 12.9    0.0507   1.066   169.8     9.8    19.8
2006 06 19    17 27.81   -26 55.7    0.0608   1.077   174.0     5.6    20.0
2006 06 24    17 57.78   -26 53.5    0.0729   1.089   175.6     4.1    20.4
2006 06 29    18 18.89   -26 34.6    0.0867   1.103   175.7     3.9    20.8
2006 07 04    18 34.13   -26 10.9    0.102    1.118   174.9     4.6    21.2

Kyle E. Smalley              (C) Copyright 2006 MPC           M.P.E.C. 2006-L02

Read MPEC 2006-L01 Read MPEC 2006-L03


Our Web policy. Index to the CBAT/MPC/ICQ pages.

MPC

Valid HTML 4.01!